Preview of NWS' New Version of Forecast
This preview is not operational and should not be used for support decisions.

Regional Weather Roundup (RWR)

Issued by National Weather Service (NWS)

                            
000
ASUS46 KSEW 241810
RWRWA 

WASHINGTON REGIONAL WEATHER ROUNDUP
NATIONAL WEATHER SERVICE SEATTLE WA
1100 AM PDT MON JUN 24 2019

NOTE:"FAIR" INDICATES FEW OR NO CLOUDS BELOW 12,000 FEET WITH NO 
SIGNIFICANT WEATHER AND/OR OBSTRUCTIONS TO VISIBILITY.

WAZ507-509-555>559-241900-
SEATTLE, TACOMA, EVERETT, AND VICINITY
  
CITY           SKY/WX    TMP DP  RH WIND       PRES   REMARKS
EVERETT        CLOUDY    54  51  90 CALM      30.09F                  
6HR MIN TEMP:  51; 6HR MAX TEMP:  54; 6HR PCP:  0.01;                

BOEING FIELD   CLOUDY    58  49  72 VRB3      30.08F                  
6HR MIN TEMP:  53; 6HR MAX TEMP:  59;                                

RENTON         CLOUDY    58  50  75 CALM      30.08F                  
6HR MIN TEMP:  53; 6HR MAX TEMP:  58;                                

SEATAC AIRPORT PTSUNNY   58  47  66 VRB3      30.08F                  
6HR MIN TEMP:  53; 6HR MAX TEMP:  58; 6HR PCP: TRACE;                

JBLM-MCCHORD   MOSUNNY   60  50  71 CALM      30.07F                  
6HR MIN TEMP:  50; 6HR MAX TEMP:  60;                                

PUYALLUP       CLOUDY    61  48  63 CALM      30.08S                  
BREMERTON      CLOUDY    57  48  72 W3        30.08F                  
6HR MIN TEMP:  51; 6HR MAX TEMP:  58;                                

JBLM-FT LEWIS  MOSUNNY   59  51  74 CALM      30.07F                  
6HR MIN TEMP:  51; 6HR MAX TEMP:  60;                                

TACOMA NARROWS PTSUNNY   61  47  59 NW5       30.08F                  
6HR MIN TEMP:  51; 6HR MAX TEMP:  61;                                

$$
 
WAZ001-503-506-510-514-515-241900-
NORTH INTERIOR
  
CITY           SKY/WX    TMP DP  RH WIND       PRES   REMARKS
BELLINGHAM     PTSUNNY   59  48  67 S15       30.05F                  
6HR MIN TEMP:  53; 6HR MAX TEMP:  59;                                

FRIDAY HARBOR  CLOUDY    62  48  60 SE6       30.06S                  
6HR MIN TEMP:  50; 6HR MAX TEMP:  62;                                

EASTSOUND      PTSUNNY   61  52  72 CALM      30.04F                  
PORT ANGELES   SUNNY     59  47  64 NW12G17   30.07F                  
6HR MIN TEMP:  47; 6HR MAX TEMP:  59;                                

EDIZ HOOK      FAIR      58  50  75 NW12      30.07S                  
6HR MIN TEMP:  51; 6HR MAX TEMP:  58;                                

PORT TOWNSEND  CLOUDY    59  52  77 E7        30.07F                  
NAS WHIDBEY    PTSUNNY   62  49  62 SW9       30.11F                  
6HR MIN TEMP:  56; 6HR MAX TEMP:  63;                                

ARLINGTON      CLOUDY    57  47  69 CALM      30.09F                  
6HR MIN TEMP:  52; 6HR MAX TEMP:  57;                                

BURLINGTON     CLOUDY    63  46  55 VRB7      30.07F                  
$$
 
WAZ020-022-039-040-504-511-512-241900-
SOUTHWEST INTERIOR
  
CITY           SKY/WX    TMP DP  RH WIND       PRES   REMARKS
SHELTON        CLOUDY    61  47  59 S6        30.05F                  
6HR MIN TEMP:  50; 6HR MAX TEMP:  63;                                

OLYMPIA        PTSUNNY   60  47  61 VRB3      30.08F                  
6HR MIN TEMP:  51; 6HR MAX TEMP:  60;                                

CHEHALIS       CLOUDY    61  48  63 CALM      30.09F                  
KELSO          CLOUDY    60  46  59 W3        30.09F                  
6HR MIN TEMP:  44; 6HR MAX TEMP:  60;                                

VANCOUVER      CLOUDY    60  44  55 NW5       30.08S                  
6HR MIN TEMP:  51; 6HR MAX TEMP:  62;                                

SCAPPOOSE, OR  CLOUDY    59  48  67 SE3       30.08S                  
6HR MIN TEMP:  44; 6HR MAX TEMP:  59;                                

PORTLAND, OR   PTSUNNY   62  44  51 VRB5      30.08F                  
6HR MIN TEMP:  51; 6HR MAX TEMP:  62;                                

$$
 
WAZ021-516-517-241900-
WASHINGTON COAST
  
CITY           SKY/WX    TMP DP  RH WIND       PRES   REMARKS
FORKS          CLOUDY    57  46  66 CALM      30.08S                  
6HR MIN TEMP:  51; 6HR MAX TEMP:  58;                                

HOQUIAM        CLOUDY    58  48  69 W8        30.08F                  
6HR MIN TEMP:  48; 6HR MAX TEMP:  59;                                

ASTORIA, OR    CLOUDY    61  49  64 CALM      30.08F                  
$$
 
WAZ019-023-024-040-567>569-241900-
CASCADE MOUNTAINS AND COLUMBIA GORGE
  
CITY           SKY/WX    TMP DP  RH WIND       PRES   REMARKS
STAMPEDE PASS  CLOUDY    45  42  89 VRB6      30.03S                  
6HR MIN TEMP:  40; 6HR MAX TEMP:  45;                                

TROUTDALE, OR  PTSUNNY   62  43  49 VRB5      30.08F                  
6HR MIN TEMP:  49; 6HR MAX TEMP:  64;                                

HOOD RIVER, OR CLEAR     63  41  45 NW20G28   30.00F                  
THE DALLES, OR SUNNY     68  43  40 NW16      29.98F                  
6HR MIN TEMP:  53; 6HR MAX TEMP:  68;                                

$$

WAZ026-027-041>044-520-521-241900-
EAST SLOPES
  
CITY           SKY/WX    TMP DP  RH WIND       PRES   REMARKS
OMAK           SUNNY     72  38  29 NE9G17    29.91F                  
6HR MIN TEMP:  50; 6HR MAX TEMP:  72;                                

WENATCHEE      SUNNY     66  34  30 W10       29.93F                  
6HR MIN TEMP:  54; 6HR MAX TEMP:  67;                                

ELLENSBURG     SUNNY     66  40  38 NW13      29.95F                  
6HR MIN TEMP:  50; 6HR MAX TEMP:  66;                                

YAKIMA         SUNNY     67  37  33 SW9       29.96F                  
6HR MIN TEMP:  52; 6HR MAX TEMP:  68;                                

SUNNYSIDE ARPT CLEAR     66  41  39 CALM      29.96                   
6HR MIN TEMP:  42; 6HR MAX TEMP:  67;                                

YAKIMA TC      FAIR      65  35  32 W6        29.94F                  
6HR MIN TEMP:  49; 6HR MAX TEMP:  65;                                

$$

WAZ028-034-035-241900-
COLUMBIA BASIN
  
CITY           SKY/WX    TMP DP  RH WIND       PRES   REMARKS
EPHRATA        SUNNY     71  35  26 SW9       29.92F                  
6HR MIN TEMP:  56; 6HR MAX TEMP:  71;                                

MOSES LAKE     SUNNY     71  37  28 VRB6      29.94F                  
6HR MIN TEMP:  54; 6HR MAX TEMP:  71;                                

PASCO          SUNNY     70  40  33 SE10      29.96F                  
6HR MIN TEMP:  46; 6HR MAX TEMP:  70;                                

RICHLAND ARPT  CLEAR     71  40  32 W5        29.95F                  
6HR MIN TEMP:  52; 6HR MAX TEMP:  72;                                

HERMISTON, OR  SUNNY     69  41  36 W8G17     29.97F                  
6HR MIN TEMP:  54; 6HR MAX TEMP:  69;                                

$$

WAZ036>038-241900-
NORTHEAST WASHINGTON
  
CITY           SKY/WX    TMP DP  RH WIND       PRES   REMARKS
SPOKANE GEIGER PTSUNNY   61  39  44 SW14G23   29.96S                  
6HR MIN TEMP:  47; 6HR MAX TEMP:  61;                                

SPOKANE FELTS  PTSUNNY   63  41  44 SW10G20   29.96F                  
6HR MIN TEMP:  52; 6HR MAX TEMP:  64;                                

FAIRCHILD AFB  MOSUNNY   63  40  43 SW12G18   29.95F                  
6HR MIN TEMP:  45; 6HR MAX TEMP:  63;                                

COEURDALENE,ID CLOUDY    59  43  55 SW9       29.98S                  
6HR MIN TEMP:  46; 6HR MAX TEMP:  61;                                

DEER PARK      CLOUDY    60  42  51 SW8       29.97S                  
6HR MIN TEMP:  42; 6HR MAX TEMP:  60;                                

$$

WAZ029>033-241900-
SOUTHEAST WASHINGTON
  
CITY           SKY/WX    TMP DP  RH WIND       PRES   REMARKS
PULLMAN        SUNNY     62  42  47 W9        30.00F                  
6HR MIN TEMP:  49; 6HR MAX TEMP:  62;                                

LEWISTON, ID   SUNNY     69  39  33 NW6       29.96F                  
6HR MIN TEMP:  53; 6HR MAX TEMP:  70;                                

WALLA WALLA    SUNNY     66  41  40 S8        29.98F                  
6HR MIN TEMP:  53; 6HR MAX TEMP:  67;                                

PENDLETON, OR  SUNNY     66  39  37 W9        29.98F                  
6HR MIN TEMP:  47; 6HR MAX TEMP:  66;                                

$$